ANIK F3

Last updated on Sat Oct 18 2025 00:02:52 GMT+0000 (Coordinated Universal Time)

1 31102U 07009A 25290.67377698 -.00000010 00000+0 00000+0 0 9994 2 31102 0.5670 86.6493 0002751 125.6070 298.0632 1.00273905 44138
UTC large
Height (km)
Speed (km/s)
/
Latitude / Longitude
Inclination (degrees)
Orbital Period (minutes)
Azimuth
Elevation
Range (km)
Doppler Factor

Next 0 passes for location: London (51.5072 / 0.1276)

Sorry there are no passes over London.